Current weather by "City, St" or "zip code"  
 

Current Conditions: University Airport, CA

Overcast


59.0 F

Last Updated on Oct 21 2021, 9:55 am PDT
Humidity: 94%
Wind Speed: N 0.0 mph
Barometer 30.14 in
Dewpoint: 57.2 F
Visibility: 1.75 mi
Precip: --
Heat Index: NA
Wind Chill: NA
Current conditions at:

University Airport, CA (KEDU)

Lat: 38.5315 Lon: 121.7865

Local Radar Image active severe weather and emergency alerts image image weather storm and storm spotter reports image weather observation monitoring service image
Local
Radar
Active
Alerts
Storm Reports Obs
Monitoring

Sign-up For Email & Text Message Weather Alert Notification Services



Advertise Here

Observation History for University Airport, CA


Time Wind
(mph)
Vis
(mi)
Weather Precip (in) Temperature (F) Relative
Humidity
Wind
Chill
(F)
Heat
Index
(F)
Pressure
Air Dwpt altimeter
(in)
sea level
(mb)
Rmks
9:55 am PDT N 0.0 1.75 Overcast -- 59.0 57.2 94% NA NA 30.14 M
8:55 am PDT N 0.0 2.00 Overcast -- 57.0 57.2 100% NA NA 30.12 M
7:55 am PDT N 0.0 2.00 Overcast -- 57.0 57.2 100% NA NA 30.10 M
6:55 am PDT N 0.0 5.00 Overcast -- 57.0 57.2 100% NA NA 30.10 M
5:55 am PDT N 0.0 5.00 Overcast -- 57.0 57.2 100% NA NA 30.09 M
4:55 am PDT N 0.0 5.00 Overcast -- 57.0 57.2 100% NA NA 30.08 M
3:55 am PDT N 0.0 6.00 Overcast -- 57.0 57.2 100% NA NA 30.09 M
2:55 am PDT N 0.0 3.00 Overcast -- 57.0 57.2 100% NA NA 30.10 M
1:55 am PDT N 0.0 3.00 Overcast -- 57.0 57.2 100% NA NA 30.10 M
12:55 am PDT N 0.0 9.00 Overcast -- 57.0 57.2 100% NA NA 30.10 M
12:35 am PDT N 0.0 9.00 Overcast -- 57.0 57.2 100% NA NA 30.11 M
11:55 pm PDT N 0.0 10.00 Overcast -- 57.0 55.4 94% NA NA 30.11 M
11:35 pm PDT N 0.0 5.00 Overcast -- 57.0 55.4 94% NA NA 30.11 M
10:55 pm PDT N 0.0 2.50 Overcast -- 57.0 55.4 94% NA NA 30.11 M
9:55 pm PDT N 0.0 5.00 Overcast -- 57.0 55.4 94% NA NA 30.10 M
8:55 pm PDT N 0.0 3.00 Overcast -- 57.0 55.4 94% NA NA 30.10 M
7:55 pm PDT N 0.0 10.00 Mostly Cloudy -- 63.0 53.6 73% NA NA 30.08 M
6:55 pm PDT N 0.0 10.00 Overcast -- 64.0 50.0 60% NA NA 30.07 M
5:55 pm PDT N 0.0 10.00 Mostly Cloudy -- 64.0 48.2 56% NA NA 30.07 M
4:55 pm PDT N 0.0 10.00 Mostly Cloudy -- 64.0 51.8 64% NA NA 30.08 M
3:55 pm PDT N 0.0 10.00 Mostly Cloudy -- 64.0 53.6 68% NA NA 30.09 M
2:55 pm PDT N 0.0 8.00 Overcast -- 61.0 53.6 77% NA NA 30.09 M
1:55 pm PDT N 0.0 10.00 Overcast -- 59.0 53.6 82% NA NA 30.10 M
12:55 pm PDT N 0.0 10.00 Overcast -- 63.0 50.0 64% NA NA 30.11 M

Regional Weather Observation


University Airport, CA (KEDU)

Overcast
59.0 F

Vacaville Nut Tree Airport, CA (KVCB)

Light Rain Fog/Mist
58.0 F

Sacramento International Airport, CA (KSMF)

Rain Fog/Mist
59.0 F

Fairfield / Travis Air Force Base, CA (KSUU)

Light Rain Fog/Mist
58.0 F

Sacramento Executive Airport, CA (KSAC)

Rain Fog/Mist
58.0 F

Sacramento, McClellan Airfield Airport, CA (KMCC)

Rain
61.0 F

Advertise Here


Advertise Here